BTK7151 WIII-WSSS

Flight info

Callsign BTK7151
Flight time 1h 19m
Altitude 34000
Route DOLTA G579 REPOV REPOV2B
Aircraft B738/M-SDE2E3FGHIRWXY/LB1

Departure

Time 2026-05-04 02:23
Airport Soekarno-Hatta International Airport (WIII)

Arrival

Time 2026-05-04 03:42
Airport Singapore Changi Airport (WSSS)
Time Latitude Longitude Altitude Speed Heading
2026-05-04 01:57 -6.12982 106.65980 44 ft 0 kts 320°
2026-05-04 02:12 -6.12989 106.65985 43 ft 2 kts 320°
2026-05-04 02:12 -6.13000 106.65994 43 ft 2 kts 320°
2026-05-04 02:13 -6.13011 106.66004 43 ft 2 kts 320°
2026-05-04 02:13 -6.13023 106.66014 43 ft 1 kts 338°
2026-05-04 02:13 -6.13037 106.66013 43 ft 2 kts 33°
2026-05-04 02:13 -6.13044 106.66006 43 ft 1 kts 66°
2026-05-04 02:14 -6.13047 106.65999 43 ft 0 kts 68°
2026-05-04 02:16 -6.13046 106.66000 43 ft 1 kts 68°
2026-05-04 02:17 -6.13041 106.66013 43 ft 2 kts 68°
2026-05-04 02:17 -6.13032 106.66035 43 ft 4 kts 68°
2026-05-04 02:17 -6.13021 106.66067 43 ft 5 kts 70°
2026-05-04 02:17 -6.13009 106.66105 43 ft 6 kts 73°
2026-05-04 02:18 -6.13001 106.66148 43 ft 6 kts 106°
2026-05-04 02:18 -6.13052 106.66189 43 ft 11 kts 154°
2026-05-04 02:18 -6.13122 106.66219 43 ft 10 kts 159°
2026-05-04 02:18 -6.13181 106.66248 43 ft 9 kts 134°
2026-05-04 02:19 -6.13185 106.66314 43 ft 11 kts 69°
2026-05-04 02:19 -6.13153 106.66396 43 ft 13 kts 68°
2026-05-04 02:19 -6.13114 106.66492 43 ft 15 kts 67°
2026-05-04 02:19 -6.13075 106.66592 43 ft 15 kts 69°
2026-05-04 02:20 -6.13035 106.66692 43 ft 15 kts 67°
2026-05-04 02:20 -6.12995 106.66788 43 ft 14 kts 69°
2026-05-04 02:20 -6.12958 106.66882 43 ft 13 kts 68°
2026-05-04 02:20 -6.12922 106.66972 43 ft 15 kts 68°
2026-05-04 02:21 -6.12879 106.67080 43 ft 17 kts 68°
2026-05-04 02:21 -6.12832 106.67198 43 ft 18 kts 67°
2026-05-04 02:21 -6.12786 106.67310 43 ft 16 kts 67°
2026-05-04 02:21 -6.12819 106.67378 43 ft 12 kts 159°
2026-05-04 02:22 -6.12905 106.67410 43 ft 14 kts 159°
2026-05-04 02:22 -6.12997 106.67416 43 ft 13 kts 204°
2026-05-04 02:22 -6.13058 106.67369 43 ft 9 kts 244°
2026-05-04 02:22 -6.13098 106.67265 43 ft 42 kts 248°
2026-05-04 02:23 -6.13323 106.66705 43 ft 126 kts 249°
2026-05-04 02:23 -6.13741 106.65659 74 ft 189 kts 248°
2026-05-04 02:23 -6.14266 106.64343 495 ft 210 kts 248°
2026-05-04 02:23 -6.14794 106.63003 859 ft 201 kts 248°
2026-05-04 02:24 -6.15318 106.61672 1243 ft 204 kts 248°
2026-05-04 02:24 -6.15844 106.60335 1622 ft 205 kts 248°
2026-05-04 02:24 -6.16380 106.58974 2006 ft 206 kts 248°
2026-05-04 02:24 -6.16908 106.57634 2383 ft 207 kts 248°
2026-05-04 02:25 -6.17446 106.56263 2765 ft 208 kts 248°
2026-05-04 02:25 -6.17981 106.54903 3142 ft 209 kts 248°
2026-05-04 02:25 -6.18520 106.53534 3520 ft 210 kts 248°
2026-05-04 02:25 -6.19064 106.52148 3900 ft 212 kts 248°
2026-05-04 02:26 -6.19500 106.50731 4269 ft 213 kts 265°
2026-05-04 02:26 -6.19218 106.49273 4649 ft 213 kts 299°
2026-05-04 02:26 -6.18254 106.48126 5045 ft 215 kts 315°
2026-05-04 02:26 -6.17194 106.47053 5423 ft 216 kts 315°
2026-05-04 02:27 -6.16124 106.45981 5801 ft 217 kts 315°
2026-05-04 02:27 -6.15040 106.44892 6186 ft 226 kts 315°
2026-05-04 02:27 -6.13856 106.43702 6553 ft 248 kts 315°
2026-05-04 02:27 -6.12575 106.42413 6920 ft 273 kts 315°
2026-05-04 02:28 -6.11175 106.41005 7309 ft 284 kts 315°
2026-05-04 02:28 -6.09769 106.39590 7688 ft 286 kts 315°
2026-05-04 02:28 -6.08341 106.38155 8068 ft 288 kts 316°
2026-05-04 02:28 -6.06737 106.36933 8445 ft 289 kts 334°
2026-05-04 02:29 -6.04834 106.36249 8835 ft 290 kts 345°
2026-05-04 02:29 -6.02885 106.35704 9212 ft 292 kts 344°
2026-05-04 02:29 -6.00910 106.35123 9592 ft 294 kts 343°
2026-05-04 02:29 -5.99210 106.34620 9919 ft 298 kts 344°
2026-05-04 02:30 -5.97133 106.34004 10311 ft 319 kts 344°
2026-05-04 02:30 -5.94934 106.33350 10689 ft 333 kts 343°
2026-05-04 02:30 -5.92684 106.32682 11067 ft 336 kts 343°
2026-05-04 02:30 -5.90430 106.32011 11445 ft 337 kts 344°
2026-05-04 02:31 -5.88175 106.31341 11818 ft 339 kts 343°
2026-05-04 02:31 -5.85895 106.30662 12195 ft 341 kts 343°
2026-05-04 02:31 -5.83578 106.29974 12582 ft 350 kts 344°
2026-05-04 02:31 -5.81184 106.29262 12962 ft 365 kts 344°
2026-05-04 02:32 -5.78702 106.28523 13339 ft 371 kts 344°
2026-05-04 02:32 -5.76209 106.27782 13718 ft 372 kts 344°
2026-05-04 02:32 -5.73712 106.26936 14093 ft 374 kts 336°
2026-05-04 02:32 -5.71397 106.25713 14474 ft 376 kts 330°
2026-05-04 02:33 -5.69077 106.24380 14857 ft 379 kts 331°
2026-05-04 02:33 -5.66783 106.23083 15231 ft 381 kts 331°
2026-05-04 02:33 -5.64444 106.21764 15610 ft 383 kts 331°
2026-05-04 02:33 -5.62116 106.20449 15986 ft 385 kts 331°
2026-05-04 02:34 -5.59749 106.19112 16367 ft 387 kts 331°
2026-05-04 02:34 -5.57392 106.17782 16744 ft 389 kts 331°
2026-05-04 02:34 -5.54983 106.16421 17128 ft 391 kts 331°
2026-05-04 02:34 -5.52593 106.15073 17506 ft 393 kts 331°
2026-05-04 02:35 -5.50192 106.13717 17884 ft 395 kts 331°
2026-05-04 02:35 -5.47765 106.12347 18264 ft 397 kts 331°
2026-05-04 02:35 -5.45335 106.10976 18643 ft 400 kts 331°
2026-05-04 02:35 -5.42871 106.09585 19025 ft 402 kts 331°
2026-05-04 02:36 -5.40429 106.08208 19401 ft 404 kts 331°
2026-05-04 02:36 -5.37963 106.06816 19779 ft 406 kts 331°
2026-05-04 02:36 -5.35467 106.05405 20159 ft 409 kts 331°
2026-05-04 02:36 -5.32962 106.03991 20539 ft 411 kts 332°
2026-05-04 02:37 -5.30446 106.02570 20918 ft 413 kts 332°
2026-05-04 02:37 -5.27904 106.01134 21299 ft 415 kts 332°
2026-05-04 02:37 -5.25388 105.99713 21675 ft 418 kts 332°
2026-05-04 02:37 -5.22829 105.98268 22054 ft 420 kts 332°
2026-05-04 02:38 -5.20265 105.96821 22432 ft 422 kts 332°
2026-05-04 02:38 -5.17658 105.95350 22815 ft 425 kts 332°
2026-05-04 02:38 -5.15072 105.93890 23192 ft 427 kts 332°
2026-05-04 02:38 -5.12463 105.92417 23571 ft 429 kts 332°
2026-05-04 02:39 -5.09844 105.90930 23949 ft 432 kts 331°
2026-05-04 02:39 -5.07201 105.89423 24328 ft 436 kts 331°
2026-05-04 02:39 -5.04546 105.87909 24706 ft 439 kts 331°
2026-05-04 02:39 -5.01866 105.86382 25085 ft 442 kts 331°
2026-05-04 02:40 -4.99148 105.84834 25466 ft 445 kts 331°
2026-05-04 02:40 -4.96441 105.83292 25844 ft 447 kts 331°
2026-05-04 02:40 -4.93701 105.81731 26224 ft 448 kts 331°
2026-05-04 02:40 -4.90975 105.80177 26600 ft 448 kts 331°
2026-05-04 02:41 -4.88278 105.78641 26974 ft 449 kts 331°
2026-05-04 02:41 -4.85551 105.77088 27352 ft 451 kts 331°
2026-05-04 02:41 -4.82804 105.75523 27731 ft 452 kts 331°
2026-05-04 02:41 -4.80065 105.73964 28108 ft 454 kts 331°
2026-05-04 02:42 -4.77309 105.72395 28485 ft 455 kts 331°
2026-05-04 02:42 -4.74526 105.70811 28866 ft 455 kts 331°
2026-05-04 02:42 -4.71749 105.69230 29245 ft 456 kts 331°
2026-05-04 02:42 -4.68991 105.67660 29621 ft 456 kts 331°
2026-05-04 02:43 -4.66221 105.66084 29998 ft 457 kts 331°
2026-05-04 02:43 -4.63422 105.64491 30379 ft 457 kts 331°
2026-05-04 02:43 -4.60670 105.62926 30754 ft 456 kts 331°
2026-05-04 02:43 -4.57876 105.61337 31135 ft 456 kts 331°
2026-05-04 02:44 -4.55114 105.59765 31512 ft 455 kts 331°
2026-05-04 02:44 -4.52358 105.58197 31888 ft 454 kts 331°
2026-05-04 02:44 -4.49603 105.56631 32266 ft 453 kts 331°
2026-05-04 02:44 -4.46835 105.55056 32646 ft 452 kts 331°
2026-05-04 02:45 -4.44114 105.53509 33020 ft 451 kts 332°
2026-05-04 02:45 -4.41370 105.51949 33399 ft 449 kts 332°
2026-05-04 02:45 -4.38669 105.50413 33773 ft 448 kts 332°
2026-05-04 02:45 -4.35940 105.48861 33947 ft 451 kts 332°
2026-05-04 02:46 -4.30367 105.45695 33943 ft 460 kts 332°
2026-05-04 02:46 -4.24772 105.42516 33938 ft 461 kts 332°
2026-05-04 02:47 -4.19176 105.39335 33938 ft 459 kts 332°
2026-05-04 02:47 -4.13606 105.36171 33939 ft 459 kts 332°
2026-05-04 02:48 -4.08037 105.33007 33939 ft 459 kts 332°
2026-05-04 02:48 -4.02440 105.29828 33939 ft 459 kts 332°
2026-05-04 02:49 -3.96857 105.26658 33939 ft 459 kts 332°
2026-05-04 02:49 -3.91305 105.23505 33939 ft 459 kts 332°
2026-05-04 02:50 -3.85858 105.20437 33939 ft 459 kts 332°
2026-05-04 02:50 -3.80235 105.17272 33941 ft 463 kts 332°
2026-05-04 02:51 -3.74546 105.14071 33938 ft 466 kts 332°
2026-05-04 02:51 -3.68903 105.10894 33938 ft 466 kts 332°
2026-05-04 02:52 -3.63225 105.07698 33938 ft 465 kts 332°
2026-05-04 02:52 -3.57581 105.04522 33939 ft 464 kts 332°
2026-05-04 02:53 -3.51927 105.01341 33941 ft 468 kts 332°
2026-05-04 02:53 -3.46206 104.98122 33938 ft 470 kts 332°
2026-05-04 02:54 -3.40483 104.94902 33938 ft 469 kts 332°
2026-05-04 02:54 -3.34810 104.91711 33939 ft 468 kts 332°
2026-05-04 02:55 -3.26276 104.86911 33938 ft 467 kts 332°
2026-05-04 02:56 -3.20574 104.83705 33939 ft 467 kts 332°
2026-05-04 02:56 -3.14870 104.80498 33939 ft 467 kts 332°
2026-05-04 02:57 -3.09184 104.77302 33939 ft 468 kts 332°
2026-05-04 02:57 -3.03522 104.74120 33939 ft 467 kts 332°
2026-05-04 02:58 -2.97838 104.70926 33939 ft 468 kts 332°
2026-05-04 02:58 -2.92174 104.67756 33939 ft 470 kts 333°
2026-05-04 02:59 -2.86251 104.65199 33936 ft 469 kts 345°
2026-05-04 02:59 -2.79883 104.63838 33941 ft 468 kts 351°
2026-05-04 03:00 -2.73429 104.62612 33938 ft 467 kts 351°
2026-05-04 03:00 -2.67034 104.61392 33939 ft 467 kts 351°
2026-05-04 03:01 -2.60655 104.60181 33939 ft 467 kts 351°
2026-05-04 03:01 -2.54224 104.58963 33939 ft 467 kts 351°
2026-05-04 03:02 -2.47838 104.57755 33939 ft 467 kts 351°
2026-05-04 03:02 -2.41439 104.56544 33939 ft 467 kts 351°
2026-05-04 03:03 -2.35010 104.55329 33939 ft 467 kts 351°
2026-05-04 03:03 -2.28579 104.54115 33939 ft 467 kts 351°
2026-05-04 03:04 -2.22184 104.52906 33939 ft 467 kts 351°
2026-05-04 03:04 -2.15757 104.51691 33939 ft 467 kts 351°
2026-05-04 03:05 -2.09358 104.50483 33939 ft 467 kts 351°
2026-05-04 03:05 -2.02959 104.49274 33939 ft 467 kts 351°
2026-05-04 03:06 -1.96527 104.48060 33939 ft 467 kts 351°
2026-05-04 03:06 -1.90144 104.46854 33939 ft 467 kts 351°
2026-05-04 03:07 -1.83729 104.45644 33939 ft 467 kts 351°
2026-05-04 03:07 -1.77319 104.44433 33939 ft 467 kts 351°
2026-05-04 03:08 -1.70902 104.43222 33939 ft 467 kts 351°
2026-05-04 03:08 -1.64495 104.42012 33939 ft 467 kts 351°
2026-05-04 03:09 -1.58105 104.40806 33939 ft 467 kts 351°
2026-05-04 03:09 -1.51676 104.39593 33939 ft 467 kts 351°
2026-05-04 03:10 -1.45272 104.38384 33939 ft 467 kts 351°
2026-05-04 03:10 -1.38864 104.37175 33939 ft 467 kts 351°
2026-05-04 03:11 -1.32470 104.35968 33939 ft 467 kts 351°
2026-05-04 03:11 -1.26037 104.34754 33939 ft 467 kts 351°
2026-05-04 03:12 -1.19621 104.33543 33939 ft 467 kts 351°
2026-05-04 03:12 -1.13202 104.32333 33939 ft 467 kts 351°
2026-05-04 03:13 -1.06798 104.31123 33943 ft 467 kts 351°
2026-05-04 03:13 -1.00398 104.29916 33954 ft 468 kts 351°
2026-05-04 03:14 -0.94006 104.28710 33965 ft 469 kts 351°
2026-05-04 03:14 -0.87589 104.27501 33966 ft 469 kts 351°
2026-05-04 03:15 -0.81138 104.26284 33966 ft 469 kts 351°
2026-05-04 03:15 -0.74791 104.25088 33966 ft 469 kts 351°
2026-05-04 03:16 -0.68478 104.23897 33966 ft 469 kts 351°
2026-05-04 03:16 -0.62010 104.22677 33966 ft 469 kts 351°
2026-05-04 03:17 -0.55621 104.21469 33966 ft 469 kts 351°
2026-05-04 03:17 -0.49222 104.20200 33966 ft 469 kts 351°
2026-05-04 03:18 -0.42808 104.18923 33966 ft 469 kts 351°
2026-05-04 03:18 -0.36406 104.17651 33966 ft 469 kts 351°
2026-05-04 03:19 -0.30016 104.16381 33966 ft 469 kts 351°
2026-05-04 03:19 -0.23644 104.15116 33966 ft 469 kts 351°
2026-05-04 03:20 -0.17150 104.13827 33966 ft 469 kts 351°
2026-05-04 03:20 -0.10658 104.12538 33966 ft 469 kts 351°
2026-05-04 03:21 -0.04151 104.11247 33966 ft 469 kts 351°
2026-05-04 03:21 0.02282 104.09970 33460 ft 470 kts 351°
2026-05-04 03:21 0.05489 104.09333 32954 ft 466 kts 351°
2026-05-04 03:22 0.08678 104.08700 32450 ft 463 kts 351°
2026-05-04 03:22 0.11814 104.08078 31950 ft 460 kts 351°
2026-05-04 03:22 0.14617 104.07523 31501 ft 458 kts 351°
2026-05-04 03:22 0.17738 104.06904 31000 ft 457 kts 351°
2026-05-04 03:23 0.20873 104.06283 30493 ft 455 kts 351°
2026-05-04 03:23 0.24000 104.05662 29986 ft 453 kts 351°
2026-05-04 03:23 0.27142 104.05040 29474 ft 450 kts 350°
2026-05-04 03:23 0.30251 104.04424 28963 ft 447 kts 350°
2026-05-04 03:24 0.33377 104.03805 28447 ft 445 kts 350°
2026-05-04 03:24 0.36432 104.03200 27940 ft 442 kts 350°
2026-05-04 03:24 0.39516 104.02588 27425 ft 439 kts 350°
2026-05-04 03:24 0.42511 104.01994 26922 ft 437 kts 349°
2026-05-04 03:25 0.45496 104.01402 26418 ft 434 kts 349°
2026-05-04 03:25 0.48443 104.00818 25900 ft 432 kts 349°
2026-05-04 03:25 0.51410 104.00229 25377 ft 429 kts 349°
2026-05-04 03:25 0.54334 103.99649 24874 ft 425 kts 349°
2026-05-04 03:26 0.57232 103.99074 24370 ft 422 kts 349°
2026-05-04 03:26 0.60123 103.98499 23865 ft 419 kts 349°
2026-05-04 03:26 0.62971 103.97934 23363 ft 416 kts 348°
2026-05-04 03:26 0.65818 103.97368 22858 ft 413 kts 348°
2026-05-04 03:27 0.68619 103.96822 22357 ft 410 kts 350°
2026-05-04 03:27 0.71423 103.96561 21856 ft 407 kts 360°
2026-05-04 03:27 0.74238 103.96826 21351 ft 404 kts 13°
2026-05-04 03:27 0.76902 103.97684 20855 ft 401 kts 22°
2026-05-04 03:28 0.79457 103.98776 20356 ft 398 kts 24°
2026-05-04 03:28 0.82019 103.99869 19849 ft 396 kts 23°
2026-05-04 03:28 0.84549 104.00935 19346 ft 393 kts 22°
2026-05-04 03:28 0.87059 104.01994 19042 ft 385 kts 22°
2026-05-04 03:29 0.89515 104.03030 19127 ft 385 kts 22°
2026-05-04 03:29 0.92006 104.04082 18667 ft 396 kts 22°
2026-05-04 03:29 0.94563 104.05163 18155 ft 390 kts 22°
2026-05-04 03:29 0.97053 104.06214 17651 ft 385 kts 22°
2026-05-04 03:30 0.99509 104.07252 17148 ft 380 kts 22°
2026-05-04 03:30 1.01930 104.08275 16642 ft 376 kts 22°
2026-05-04 03:30 1.04346 104.09296 16113 ft 374 kts 21°
2026-05-04 03:30 1.06709 104.10294 15591 ft 371 kts 21°
2026-05-04 03:31 1.09080 104.11296 15064 ft 368 kts 21°
2026-05-04 03:31 1.11426 104.12287 14536 ft 364 kts 21°
2026-05-04 03:31 1.13743 104.13267 14010 ft 360 kts 21°
2026-05-04 03:31 1.16029 104.14239 13485 ft 357 kts 21°
2026-05-04 03:32 1.18301 104.15208 12958 ft 353 kts 21°
2026-05-04 03:32 1.20566 104.16174 12427 ft 350 kts 20°
2026-05-04 03:32 1.22782 104.17119 11903 ft 346 kts 20°
2026-05-04 03:32 1.24997 104.18063 11373 ft 344 kts 20°
2026-05-04 03:33 1.27210 104.19006 10841 ft 341 kts 21°
2026-05-04 03:33 1.29317 104.19904 10331 ft 340 kts 21°
2026-05-04 03:33 1.31493 104.20778 9802 ft 336 kts 14°
2026-05-04 03:33 1.33779 104.21095 9269 ft 329 kts 354°
2026-05-04 03:34 1.36009 104.20714 8757 ft 324 kts 344°
2026-05-04 03:34 1.38201 104.20204 8227 ft 322 kts 345°
2026-05-04 03:34 1.40384 104.19725 7699 ft 321 kts 345°
2026-05-04 03:34 1.42558 104.19254 7172 ft 320 kts 345°
2026-05-04 03:35 1.44738 104.18783 6642 ft 319 kts 346°
2026-05-04 03:35 1.46890 104.18318 6118 ft 318 kts 346°
2026-05-04 03:35 1.49084 104.17847 5582 ft 317 kts 346°
2026-05-04 03:35 1.51208 104.17368 5089 ft 315 kts 342°
2026-05-04 03:36 1.53140 104.16461 4972 ft 295 kts 322°
2026-05-04 03:36 1.54700 104.15216 4801 ft 283 kts 317°
2026-05-04 03:36 1.56205 104.13954 4416 ft 282 kts 318°
2026-05-04 03:36 1.57648 104.12643 4036 ft 278 kts 307°
2026-05-04 03:37 1.58476 104.10931 3656 ft 270 kts 276°
2026-05-04 03:37 1.58299 104.09145 3492 ft 252 kts 246°
2026-05-04 03:37 1.57470 104.07707 3489 ft 232 kts 226°
2026-05-04 03:37 1.56269 104.06760 3496 ft 207 kts 203°
2026-05-04 03:38 1.55004 104.06228 3499 ft 186 kts 199°
2026-05-04 03:38 1.53830 104.05735 3497 ft 187 kts 200°
2026-05-04 03:38 1.52588 104.05218 3285 ft 206 kts 202°
2026-05-04 03:38 1.51293 104.04668 2982 ft 202 kts 202°
2026-05-04 03:39 1.50012 104.04127 2712 ft 200 kts 202°
2026-05-04 03:39 1.48740 104.03590 2438 ft 199 kts 202°
2026-05-04 03:39 1.47477 104.03057 2166 ft 198 kts 202°
2026-05-04 03:39 1.46229 104.02530 1889 ft 191 kts 202°
2026-05-04 03:40 1.45072 104.02041 1658 ft 168 kts 202°
2026-05-04 03:40 1.44049 104.01611 1426 ft 152 kts 204°
2026-05-04 03:40 1.43087 104.01204 1228 ft 151 kts 204°
2026-05-04 03:40 1.42131 104.00800 1027 ft 150 kts 204°
2026-05-04 03:41 1.41174 104.00396 824 ft 150 kts 204°
2026-05-04 03:41 1.40220 103.99993 622 ft 149 kts 204°
2026-05-04 03:41 1.39274 103.99593 423 ft 147 kts 204°
2026-05-04 03:41 1.38354 103.99205 233 ft 145 kts 204°
2026-05-04 03:42 1.37431 103.98815 52 ft 144 kts 204°
2026-05-04 03:42 1.36604 103.98465 31 ft 113 kts 203°
2026-05-04 03:42 1.36073 103.98241 30 ft 59 kts 204°
2026-05-04 03:42 1.35755 103.98112 30 ft 33 kts 189°
2026-05-04 03:43 1.35604 103.98114 30 ft 19 kts 173°
2026-05-04 03:43 1.35541 103.98135 30 ft 6 kts 137°
2026-05-04 03:43 1.35528 103.98164 30 ft 4 kts 102°
2026-05-04 03:43 1.35531 103.98187 30 ft 3 kts 70°
2026-05-04 03:44 1.35553 103.98218 30 ft 6 kts 32°
2026-05-04 03:44 1.35598 103.98238 30 ft 8 kts 23°
2026-05-04 03:44 1.35656 103.98264 30 ft 8 kts 22°
2026-05-04 03:44 1.35663 103.98267 30 ft 0 kts 22°
2026-05-04 03:45 1.35705 103.98283 30 ft 9 kts 22°
2026-05-04 03:45 1.35724 103.98305 30 ft 4 kts 85°
2026-05-04 03:45 1.35713 103.98338 30 ft 4 kts 120°
2026-05-04 03:45 1.35692 103.98361 30 ft 3 kts 143°
2026-05-04 03:46 1.35669 103.98367 30 ft 3 kts 190°
2026-05-04 03:46 1.35643 103.98356 30 ft 4 kts 204°
2026-05-04 03:46 1.35613 103.98342 30 ft 5 kts 203°
2026-05-04 03:46 1.35547 103.98315 30 ft 15 kts 203°
2026-05-04 03:47 1.35422 103.98262 30 ft 22 kts 202°
2026-05-04 03:47 1.35268 103.98196 30 ft 23 kts 201°
2026-05-04 03:47 1.35130 103.98168 30 ft 18 kts 177°
2026-05-04 03:47 1.35046 103.98187 30 ft 8 kts 154°
2026-05-04 03:48 1.35016 103.98202 30 ft 2 kts 153°
2026-05-04 03:48 1.35008 103.98206 30 ft 0 kts 155°
2026-05-04 03:48 1.35007 103.98206 30 ft 0 kts 155°